| time (UTC) | temp C | wind direction | speed KPH | gust KPH | rain 1hr cm | rain 24hr cm | rain mn cm | humidity % | barometer mb |
| 20260905205000 | 35 | 55 | 1.6 | 8.0 | 0.00 | 0.18 | 0.18 | 57 | 1011.4 |
| 20260905204759 | 35 | 45 | 1.6 | 8.0 | 0.00 | 0.18 | 0.18 | 59 | 1011.4 |
| 20260905204600 | 35 | 201 | 1.6 | 9.7 | 0.00 | 0.18 | 0.18 | 58 | 1011.4 |
| 20260905204359 | 35 | 12 | 3.2 | 9.7 | 0.00 | 0.18 | 0.18 | 57 | 1011.4 |
| 20260905204159 | 35 | 261 | 3.2 | 9.7 | 0.00 | 0.18 | 0.18 | 58 | 1011.5 |
| 20260905203800 | 34 | 165 | 3.2 | 9.7 | 0.00 | 0.18 | 0.18 | 59 | 1011.4 |
| 20260905203559 | 34 | 30 | 3.2 | 8.0 | 0.00 | 0.18 | 0.18 | 58 | 1011.5 |
| 20260905203359 | 34 | 283 | 3.2 | 8.0 | 0.00 | 0.18 | 0.18 | 58 | 1011.6 |
| 20260905203159 | 34 | 30 | 3.2 | 8.0 | 0.00 | 0.18 | 0.18 | 57 | 1011.6 |
| 20260905202959 | 34 | 293 | 3.2 | 8.0 | 0.00 | 0.18 | 0.18 | 58 | 1011.6 |
| 20260905202759 | 35 | 265 | 3.2 | 9.7 | 0.00 | 0.18 | 0.18 | 62 | 1011.7 |
| 20260905202559 | 34 | 297 | 3.2 | 12.9 | 0.00 | 0.18 | 0.18 | 58 | 1011.7 |
| 20260905202359 | 34 | 299 | 3.2 | 12.9 | 0.00 | 0.18 | 0.18 | 58 | 1011.7 |
| 20260905202159 | 34 | 317 | 3.2 | 12.9 | 0.00 | 0.18 | 0.18 | 58 | 1011.7 |
| 20260905201759 | 34 | 213 | 3.2 | 9.7 | 0.00 | 0.18 | 0.18 | 60 | 1011.8 |
| 20260905201559 | 34 | 226 | 3.2 | 9.7 | 0.00 | 0.18 | 0.18 | 58 | 1011.8 |
| 20260905201359 | 34 | 275 | 3.2 | 9.7 | 0.00 | 0.18 | 0.18 | 59 | 1011.9 |
| 20260905201159 | 34 | 311 | 3.2 | 9.7 | 0.00 | 0.18 | 0.18 | 59 | 1011.9 |
| 20260905200959 | 34 | 50 | 4.8 | 11.3 | 0.00 | 0.18 | 0.18 | 58 | 1011.9 |
| 20260905200759 | 34 | 360 | 4.8 | 11.3 | 0.00 | 0.18 | 0.18 | 58 | 1011.8 |
| 20260905200559 | 34 | 13 | 3.2 | 11.3 | 0.00 | 0.18 | 0.18 | 58 | 1011.9 |
| 20260905200359 | 34 | 327 | 3.2 | 11.3 | 0.00 | 0.18 | 0.18 | 58 | 1011.9 |
| 20260905200159 | 34 | 301 | 3.2 | 9.7 | 0.00 | 0.18 | 0.18 | 58 | 1011.9 |
| 20260905200002 | 35 | 50 | 1.6 | 8.0 | 0.00 | 0.18 | 0.18 | 61 | 1011.9 |
| 20260905195559 | 34 | 242 | 3.2 | 9.7 | 0.00 | 0.18 | 0.18 | 59 | 1012.0 |
| 20260905195400 | 34 | 241 | 3.2 | 9.7 | 0.00 | 0.18 | 0.18 | 59 | 1012.0 |
| 20260905195000 | 34 | 194 | 3.2 | 9.7 | 0.00 | 0.18 | 0.18 | 59 | 1012.1 |
| 20260905194759 | 34 | 201 | 3.2 | 9.7 | 0.00 | 0.18 | 0.18 | 58 | 1012.1 |
| 20260905194359 | 34 | 150 | 3.2 | 6.4 | 0.00 | 0.18 | 0.18 | 60 | 1012.1 |
| 20260905194200 | 34 | 44 | 3.2 | 6.4 | 0.00 | 0.18 | 0.18 | 58 | 1012.2 |
| 20260905194000 | 34 | 349 | 3.2 | 8.0 | 0.00 | 0.18 | 0.18 | 61 | 1012.2 |
| 20260905193759 | 34 | 291 | 3.2 | 8.0 | 0.00 | 0.18 | 0.18 | 64 | 1012.2 |
| 20260905193559 | 34 | 246 | 3.2 | 8.0 | 0.00 | 0.18 | 0.18 | 62 | 1012.3 |
| 20260905193359 | 34 | 147 | 3.2 | 8.0 | 0.00 | 0.18 | 0.18 | 59 | 1012.3 |
| 20260905193159 | 34 | 158 | 3.2 | 6.4 | 0.00 | 0.18 | 0.18 | 60 | 1012.4 |
| 20260905192959 | 34 | 126 | 3.2 | 11.3 | 0.00 | 0.18 | 0.18 | 60 | 1012.4 |
| 20260905192559 | 33 | 154 | 3.2 | 11.3 | 0.00 | 0.18 | 0.18 | 61 | 1012.5 |
| 20260905192359 | 33 | 139 | 3.2 | 11.3 | 0.00 | 0.18 | 0.18 | 61 | 1012.6 |
| 20260905192159 | 33 | 250 | 3.2 | 11.3 | 0.00 | 0.18 | 0.18 | 61 | 1012.6 |
| 20260905191759 | 33 | 312 | 3.2 | 8.0 | 0.00 | 0.18 | 0.18 | 62 | 1012.6 |
| 20260905191559 | 33 | 293 | 1.6 | 8.0 | 0.00 | 0.18 | 0.18 | 60 | 1012.6 |
| 20260905191159 | 33 | 343 | 1.6 | 6.4 | 0.00 | 0.18 | 0.18 | 60 | 1012.7 |
| 20260905190959 | 33 | 13 | 1.6 | 8.0 | 0.00 | 0.18 | 0.18 | 59 | 1012.7 |
| 20260905190759 | 33 | 196 | 1.6 | 8.0 | 0.00 | 0.18 | 0.18 | 62 | 1012.7 |
| 20260905190600 | 33 | 257 | 3.2 | 8.0 | 0.00 | 0.18 | 0.18 | 59 | 1012.7 |
| 20260905190359 | 33 | 150 | 3.2 | 8.0 | 0.00 | 0.18 | 0.18 | 60 | 1012.8 |
| 20260905190200 | 33 | 155 | 3.2 | 8.0 | 0.00 | 0.18 | 0.18 | 60 | 1012.8 |
| 20260905190002 | 33 | 203 | 3.2 | 8.0 | 0.00 | 0.18 | 0.18 | 61 | 1012.8 |
| 20260905185800 | 33 | 89 | 3.2 | 8.0 | 0.00 | 0.18 | 0.18 | 61 | 1012.8 |
| 20260905185559 | 33 | 311 | 3.2 | 8.0 | 0.00 | 0.18 | 0.18 | 62 | 1012.8 |
| 20260905185359 | 33 | 328 | 3.2 | 8.0 | 0.00 | 0.18 | 0.18 | 62 | 1012.8 |
| 20260905185000 | 33 | 307 | 3.2 | 9.7 | 0.00 | 0.18 | 0.18 | 61 | 1012.9 |
| 20260905184759 | 33 | 304 | 3.2 | 9.7 | 0.00 | 0.18 | 0.18 | 62 | 1013.0 |
| 20260905184359 | 33 | 271 | 3.2 | 9.7 | 0.00 | 0.18 | 0.18 | 60 | 1013.1 |
| 20260905183959 | 33 | 242 | 4.8 | 9.7 | 0.00 | 0.18 | 0.18 | 64 | 1013.2 |
| 20260905183801 | 33 | 236 | 4.8 | 9.7 | 0.00 | 0.18 | 0.18 | 63 | 1013.2 |
| 20260905183559 | 33 | 168 | 4.8 | 9.7 | 0.00 | 0.18 | 0.18 | 62 | 1013.2 |
| 20260905183359 | 33 | 219 | 4.8 | 9.7 | 0.00 | 0.18 | 0.18 | 60 | 1013.2 |
| 20260905183201 | 33 | 218 | 3.2 | 9.7 | 0.00 | 0.18 | 0.18 | 61 | 1013.2 |
| 20260905182959 | 33 | 231 | 4.8 | 9.7 | 0.00 | 0.18 | 0.18 | 64 | 1013.2 |
| 20260905182800 | 33 | 77 | 4.8 | 9.7 | 0.00 | 0.18 | 0.18 | 65 | 1013.2 |
| 20260905182600 | 33 | 46 | 4.8 | 9.7 | 0.00 | 0.18 | 0.18 | 61 | 1013.2 |
| 20260905182400 | 33 | 127 | 4.8 | 9.7 | 0.00 | 0.18 | 0.18 | 60 | 1013.2 |
| 20260905182202 | 33 | 121 | 4.8 | 9.7 | 0.00 | 0.18 | 0.18 | 60 | 1013.3 |
| 20260905181959 | 33 | 181 | 3.2 | 9.7 | 0.00 | 0.18 | 0.18 | 62 | 1013.4 |
| 20260905181759 | 33 | 148 | 3.2 | 9.7 | 0.00 | 0.18 | 0.18 | 62 | 1013.4 |
| 20260905181559 | 32 | 37 | 3.2 | 8.0 | 0.00 | 0.18 | 0.18 | 60 | 1013.4 |
| 20260905181359 | 33 | 30 | 1.6 | 8.0 | 0.00 | 0.18 | 0.18 | 60 | 1013.5 |
| 20260905181159 | 32 | 205 | 1.6 | 6.4 | 0.00 | 0.18 | 0.18 | 62 | 1013.4 |
| 20260905180759 | 32 | 239 | 1.6 | 8.0 | 0.00 | 0.18 | 0.18 | 61 | 1013.5 |
| 20260905180159 | 32 | 332 | 4.8 | 9.7 | 0.00 | 0.18 | 0.18 | 61 | 1013.5 |
| 20260905180004 | 32 | 257 | 4.8 | 9.7 | 0.00 | 0.18 | 0.18 | 62 | 1013.5 |
| 20260905175800 | 32 | 278 | 4.8 | 9.7 | 0.00 | 0.18 | 0.18 | 65 | 1013.5 |
| 20260905175359 | 32 | 201 | 6.4 | 9.7 | 0.00 | 0.18 | 0.18 | 62 | 1013.5 |
| 20260905174959 | 32 | 149 | 6.4 | 17.7 | 0.00 | 0.18 | 0.18 | 64 | 1013.6 |
| 20260905174759 | 32 | 115 | 6.4 | 17.7 | 0.00 | 0.18 | 0.18 | 64 | 1013.6 |
| 20260905174401 | 32 | 136 | 4.8 | 17.7 | 0.00 | 0.18 | 0.18 | 63 | 1013.6 |
| 20260905174000 | 32 | 136 | 4.8 | 12.9 | 0.00 | 0.18 | 0.18 | 63 | 1013.7 |
| 20260905173759 | 31 | 160 | 6.4 | 12.9 | 0.00 | 0.18 | 0.18 | 64 | 1013.7 |
| 20260905173359 | 31 | 245 | 8.0 | 12.9 | 0.00 | 0.18 | 0.18 | 63 | 1013.7 |
| 20260905173200 | 31 | 137 | 6.4 | 12.9 | 0.00 | 0.18 | 0.18 | 64 | 1013.7 |
| 20260905172959 | 31 | 182 | 6.4 | 12.9 | 0.00 | 0.18 | 0.18 | 64 | 1013.7 |
| 20260905172759 | 31 | 156 | 6.4 | 12.9 | 0.00 | 0.18 | 0.18 | 64 | 1013.7 |
| 20260905172559 | 31 | 147 | 6.4 | 12.9 | 0.00 | 0.18 | 0.18 | 65 | 1013.8 |
| 20260905172359 | 31 | 153 | 6.4 | 11.3 | 0.00 | 0.18 | 0.18 | 66 | 1013.8 |
| 20260905172159 | 31 | 197 | 6.4 | 11.3 | 0.00 | 0.18 | 0.18 | 68 | 1013.8 |
| 20260905172001 | 31 | 118 | 6.4 | 9.7 | 0.00 | 0.18 | 0.18 | 65 | 1013.8 |
| 20260905171759 | 31 | 120 | 6.4 | 9.7 | 0.00 | 0.18 | 0.18 | 65 | 1013.9 |
| 20260905171559 | 31 | 124 | 6.4 | 11.3 | 0.00 | 0.18 | 0.18 | 65 | 1013.9 |
| 20260905171359 | 31 | 172 | 6.4 | 11.3 | 0.00 | 0.18 | 0.18 | 65 | 1013.9 |
| 20260905170959 | 31 | 200 | 6.4 | 12.9 | 0.00 | 0.18 | 0.18 | 64 | 1013.9 |
| 20260905170759 | 31 | 176 | 6.4 | 12.9 | 0.00 | 0.18 | 0.18 | 65 | 1013.8 |
| 20260905170559 | 31 | 255 | 6.4 | 12.9 | 0.00 | 0.18 | 0.18 | 66 | 1013.8 |
| 20260905170359 | 31 | 209 | 8.0 | 11.3 | 0.00 | 0.18 | 0.18 | 67 | 1013.8 |
| 20260905170159 | 31 | 200 | 8.0 | 14.5 | 0.00 | 0.18 | 0.18 | 67 | 1013.9 |
| 20260905170003 | 31 | 206 | 8.0 | 16.1 | 0.00 | 0.18 | 0.18 | 68 | 1013.9 |
| 20260905165759 | 31 | 215 | 6.4 | 16.1 | 0.00 | 0.18 | 0.18 | 66 | 1014.0 |
| 20260905165559 | 31 | 181 | 6.4 | 16.1 | 0.00 | 0.18 | 0.18 | 66 | 1014.0 |
| 20260905165359 | 31 | 106 | 6.4 | 16.1 | 0.00 | 0.18 | 0.18 | 67 | 1014.1 |
| 20260905165159 | 31 | 96 | 6.4 | 16.1 | 0.00 | 0.18 | 0.18 | 67 | 1014.2 |
| 20260905165001 | 31 | 150 | 6.4 | 14.5 | 0.00 | 0.18 | 0.18 | 67 | 1014.2 |
| 20260905164759 | 31 | 137 | 8.0 | 14.5 | 0.00 | 0.18 | 0.18 | 68 | 1014.3 |
| 20260905164600 | 31 | 141 | 8.0 | 14.5 | 0.00 | 0.18 | 0.18 | 66 | 1014.3 |
| 20260905164358 | 30 | 117 | 6.4 | 12.9 | 0.00 | 0.18 | 0.18 | 68 | 1014.4 |
| 20260905164200 | 30 | 180 | 6.4 | 12.9 | 0.00 | 0.18 | 0.18 | 68 | 1014.4 |
| 20260905163958 | 30 | 143 | 6.4 | 11.3 | 0.00 | 0.18 | 0.18 | 68 | 1014.4 |
| 20260905163758 | 30 | 124 | 6.4 | 11.3 | 0.00 | 0.18 | 0.18 | 68 | 1014.4 |
| 20260905163559 | 30 | 139 | 6.4 | 11.3 | 0.00 | 0.18 | 0.18 | 67 | 1014.5 |
| 20260905163358 | 30 | 125 | 6.4 | 12.9 | 0.00 | 0.18 | 0.18 | 66 | 1014.5 |
| 20260905163200 | 30 | 191 | 6.4 | 12.9 | 0.00 | 0.18 | 0.18 | 68 | 1014.6 |
| 20260905162959 | 30 | 162 | 4.8 | 12.9 | 0.00 | 0.18 | 0.18 | 70 | 1014.6 |
| 20260905162759 | 30 | 144 | 6.4 | 12.9 | 0.00 | 0.18 | 0.18 | 70 | 1014.7 |
| 20260905162558 | 30 | 115 | 4.8 | 12.9 | 0.00 | 0.18 | 0.18 | 69 | 1014.6 |
| 20260905162359 | 30 | 162 | 4.8 | 9.7 | 0.00 | 0.18 | 0.18 | 71 | 1014.6 |
| 20260905161959 | 30 | 144 | 6.4 | 14.5 | 0.00 | 0.18 | 0.18 | 71 | 1014.7 |
| 20260905161759 | 30 | 113 | 6.4 | 14.5 | 0.00 | 0.18 | 0.18 | 70 | 1014.6 |
| 20260905161159 | 29 | 132 | 9.7 | 14.5 | 0.00 | 0.18 | 0.18 | 70 | 1014.7 |
| 20260905160959 | 29 | 135 | 9.7 | 14.5 | 0.00 | 0.18 | 0.18 | 70 | 1014.8 |
| 20260905160759 | 29 | 110 | 8.0 | 17.7 | 0.00 | 0.18 | 0.18 | 70 | 1014.8 |
| 20260905160558 | 29 | 134 | 8.0 | 17.7 | 0.00 | 0.18 | 0.18 | 71 | 1014.8 |
| 20260905160359 | 29 | 195 | 6.4 | 17.7 | 0.00 | 0.18 | 0.18 | 70 | 1014.7 |
| 20260905160158 | 29 | 169 | 4.8 | 17.7 | 0.00 | 0.18 | 0.18 | 71 | 1014.7 |
| 20260905160002 | 29 | 118 | 4.8 | 17.7 | 0.00 | 0.18 | 0.18 | 73 | 1014.7 |
| 20260905155759 | 29 | 124 | 4.8 | 9.7 | 0.00 | 0.18 | 0.18 | 71 | 1014.6 |
| 20260905155559 | 29 | 113 | 4.8 | 9.7 | 0.00 | 0.18 | 0.18 | 72 | 1014.6 |
| 20260905155359 | 29 | 51 | 4.8 | 9.7 | 0.00 | 0.18 | 0.18 | 72 | 1014.6 |
| 20260905155159 | 29 | 102 | 4.8 | 11.3 | 0.00 | 0.18 | 0.18 | 72 | 1014.7 |
| 20260905154959 | 29 | 112 | 6.4 | 11.3 | 0.00 | 0.18 | 0.18 | 71 | 1014.7 |
| 20260905154759 | 28 | 134 | 6.4 | 16.1 | 0.00 | 0.18 | 0.18 | 71 | 1014.8 |
| 20260905154559 | 28 | 101 | 8.0 | 16.1 | 0.00 | 0.18 | 0.18 | 73 | 1014.8 |
| 20260905154358 | 28 | 73 | 8.0 | 16.1 | 0.00 | 0.18 | 0.18 | 73 | 1014.8 |
| 20260905154158 | 28 | 111 | 9.7 | 16.1 | 0.00 | 0.18 | 0.18 | 73 | 1014.8 |
| 20260905153959 | 28 | 92 | 8.0 | 16.1 | 0.00 | 0.18 | 0.18 | 72 | 1014.8 |
| 20260905153800 | 28 | 143 | 8.0 | 14.5 | 0.00 | 0.18 | 0.18 | 72 | 1014.8 |
| 20260905153358 | 28 | 112 | 6.4 | 14.5 | 0.00 | 0.18 | 0.18 | 74 | 1014.8 |
| 20260905153159 | 28 | 133 | 6.4 | 12.9 | 0.00 | 0.18 | 0.18 | 73 | 1014.8 |
| 20260905152959 | 28 | 154 | 6.4 | 16.1 | 0.00 | 0.18 | 0.18 | 73 | 1014.8 |
| 20260905152759 | 28 | 154 | 6.4 | 16.1 | 0.00 | 0.18 | 0.18 | 74 | 1014.9 |
| 20260905152559 | 28 | 122 | 6.4 | 16.1 | 0.00 | 0.18 | 0.18 | 74 | 1014.9 |
| 20260905152359 | 28 | 157 | 6.4 | 16.1 | 0.00 | 0.18 | 0.18 | 75 | 1014.9 |
| 20260905152159 | 28 | 134 | 8.0 | 16.1 | 0.00 | 0.18 | 0.18 | 75 | 1014.9 |
| 20260905151959 | 28 | 168 | 8.0 | 16.1 | 0.00 | 0.18 | 0.18 | 76 | 1014.9 |
| 20260905151758 | 28 | 112 | 8.0 | 16.1 | 0.00 | 0.18 | 0.18 | 75 | 1014.9 |
| 20260905151559 | 28 | 121 | 8.0 | 16.1 | 0.00 | 0.18 | 0.18 | 75 | 1015.0 |
| 20260905151358 | 28 | 93 | 8.0 | 16.1 | 0.00 | 0.18 | 0.18 | 76 | 1014.9 |
| 20260905151200 | 27 | 134 | 8.0 | 16.1 | 0.00 | 0.18 | 0.18 | 75 | 1014.8 |
| 20260905150959 | 27 | 162 | 6.4 | 12.9 | 0.00 | 0.18 | 0.18 | 75 | 1014.9 |
| 20260905150759 | 27 | 120 | 6.4 | 14.5 | 0.00 | 0.18 | 0.18 | 75 | 1014.9 |
| 20260905150559 | 27 | 115 | 6.4 | 14.5 | 0.00 | 0.18 | 0.18 | 75 | 1015.0 |
| 20260905150359 | 27 | 122 | 6.4 | 14.5 | 0.00 | 0.18 | 0.18 | 74 | 1015.0 |
| 20260905150159 | 27 | 133 | 6.4 | 14.5 | 0.00 | 0.18 | 0.18 | 75 | 1015.0 |
| 20260905150003 | 27 | 167 | 6.4 | 14.5 | 0.00 | 0.18 | 0.18 | 76 | 1015.0 |
| 20260905145759 | 27 | 124 | 6.4 | 14.5 | 0.00 | 0.18 | 0.18 | 75 | 1015.1 |
| 20260905145559 | 27 | 45 | 8.0 | 16.1 | 0.00 | 0.18 | 0.18 | 75 | 1015.0 |
| 20260905145358 | 27 | 101 | 8.0 | 22.5 | 0.00 | 0.18 | 0.18 | 74 | 1015.1 |
| 20260905145158 | 27 | 98 | 8.0 | 22.5 | 0.00 | 0.18 | 0.18 | 75 | 1015.1 |
| 20260905144959 | 27 | 126 | 8.0 | 22.5 | 0.00 | 0.18 | 0.18 | 78 | 1015.1 |
| 20260905144759 | 27 | 101 | 8.0 | 22.5 | 0.00 | 0.18 | 0.18 | 76 | 1015.1 |
| 20260905144558 | 27 | 111 | 6.4 | 16.1 | 0.00 | 0.18 | 0.18 | 78 | 1015.2 |
| 20260905144358 | 27 | 118 | 6.4 | 14.5 | 0.00 | 0.18 | 0.18 | 79 | 1015.3 |
| 20260905143958 | 26 | 86 | 4.8 | 9.7 | 0.00 | 0.18 | 0.18 | 81 | 1015.3 |
| 20260905143559 | 26 | 80 | 4.8 | 11.3 | 0.00 | 0.18 | 0.18 | 84 | 1015.2 |
| 20260905143400 | 26 | 111 | 4.8 | 12.9 | 0.00 | 0.18 | 0.18 | 84 | 1015.1 |
| 20260905143158 | 26 | 101 | 6.4 | 16.1 | 0.00 | 0.18 | 0.18 | 85 | 1015.2 |
| 20260905142959 | 26 | 82 | 6.4 | 16.1 | 0.00 | 0.18 | 0.18 | 84 | 1015.2 |
| 20260905142759 | 26 | 99 | 6.4 | 16.1 | 0.00 | 0.18 | 0.18 | 85 | 1015.2 |
| 20260905142559 | 26 | 83 | 6.4 | 16.1 | 0.00 | 0.18 | 0.18 | 85 | 1015.1 |
| 20260905142358 | 26 | 101 | 6.4 | 16.1 | 0.00 | 0.18 | 0.18 | 86 | 1015.1 |
| 20260905142159 | 25 | 112 | 6.4 | 16.1 | 0.00 | 0.18 | 0.18 | 86 | 1015.1 |
| 20260905141958 | 25 | 105 | 8.0 | 16.1 | 0.00 | 0.18 | 0.18 | 87 | 1015.1 |
| 20260905141759 | 25 | 107 | 6.4 | 16.1 | 0.00 | 0.18 | 0.18 | 86 | 1015.1 |
| 20260905141559 | 25 | 101 | 6.4 | 16.1 | 0.00 | 0.18 | 0.18 | 87 | 1015.2 |
| 20260905141359 | 25 | 105 | 6.4 | 16.1 | 0.00 | 0.18 | 0.18 | 88 | 1015.2 |
| 20260905141200 | 25 | 40 | 6.4 | 16.1 | 0.00 | 0.18 | 0.18 | 87 | 1015.3 |
| 20260905140959 | 25 | 47 | 6.4 | 16.1 | 0.00 | 0.18 | 0.18 | 87 | 1015.3 |
| 20260905140759 | 25 | 47 | 6.4 | 17.7 | 0.00 | 0.18 | 0.18 | 88 | 1015.3 |
| 20260905140559 | 25 | 53 | 6.4 | 17.7 | 0.00 | 0.18 | 0.18 | 88 | 1015.3 |
| 20260905140358 | 25 | 63 | 8.0 | 19.3 | 0.00 | 0.18 | 0.18 | 88 | 1015.3 |
| 20260905140159 | 25 | 98 | 8.0 | 19.3 | 0.00 | 0.18 | 0.18 | 89 | 1015.4 |
| 20260905140001 | 25 | 25 | 8.0 | 19.3 | 0.00 | 0.18 | 0.18 | 89 | 1015.3 |
| 20260905135758 | 25 | 106 | 6.4 | 19.3 | 0.00 | 0.18 | 0.18 | 89 | 1015.3 |
| 20260905135559 | 25 | 119 | 6.4 | 19.3 | 0.00 | 0.18 | 0.18 | 90 | 1015.4 |
| 20260905135158 | 25 | 58 | 8.0 | 14.5 | 0.00 | 0.18 | 0.18 | 91 | 1015.4 |
| 20260905134800 | 25 | 110 | 8.0 | 20.9 | 0.00 | 0.18 | 0.18 | 91 | 1015.4 |
| 20260905134359 | 25 | 49 | 8.0 | 22.5 | 0.03 | 0.18 | 0.18 | 91 | 1015.4 |
| 20260905134158 | 25 | 58 | 8.0 | 22.5 | 0.05 | 0.18 | 0.18 | 92 | 1015.3 |
| 20260905134001 | 25 | 28 | 8.0 | 22.5 | 0.05 | 0.18 | 0.18 | 94 | 1015.4 |
| 20260905133759 | 24 | 96 | 9.7 | 22.5 | 0.08 | 0.18 | 0.18 | 94 | 1015.4 |
| 20260905133559 | 24 | 49 | 9.7 | 22.5 | 0.10 | 0.18 | 0.18 | 93 | 1015.5 |
| 20260905133358 | 24 | 58 | 9.7 | 22.5 | 0.18 | 0.18 | 0.18 | 93 | 1015.5 |
| 20260905133159 | 24 | 44 | 11.3 | 20.9 | 0.18 | 0.18 | 0.18 | 95 | 1015.5 |
| 20260905132959 | 24 | 44 | 11.3 | 24.1 | 0.18 | 0.18 | 0.18 | 95 | 1015.5 |
| 20260905132359 | 23 | 43 | 9.7 | 24.1 | 0.18 | 0.18 | 0.18 | 96 | 1015.5 |
| 20260905132159 | 23 | 40 | 9.7 | 22.5 | 0.18 | 0.18 | 0.18 | 97 | 1015.5 |
| 20260905131959 | 23 | 63 | 8.0 | 14.5 | 0.18 | 0.18 | 0.18 | 97 | 1015.4 |
| 20260905131758 | 23 | 60 | 8.0 | 14.5 | 0.18 | 0.18 | 0.18 | 97 | 1015.4 |
| 20260905131600 | 23 | 72 | 8.0 | 14.5 | 0.18 | 0.18 | 0.18 | 98 | 1015.4 |
| 20260905131359 | 23 | 48 | 9.7 | 17.7 | 0.18 | 0.18 | 0.18 | 98 | 1015.4 |
| 20260905131159 | 23 | 51 | 11.3 | 20.9 | 0.18 | 0.18 | 0.18 | 98 | 1015.4 |
| 20260905130959 | 23 | 60 | 11.3 | 24.1 | 0.18 | 0.18 | 0.18 | 98 | 1015.3 |
| 20260905130558 | 23 | 49 | 11.3 | 24.1 | 0.18 | 0.18 | 0.18 | 99 | 1015.4 |
| 20260905130400 | 23 | 49 | 9.7 | 24.1 | 0.18 | 0.18 | 0.18 | 99 | 1015.4 |
| 20260905130158 | 23 | 48 | 8.0 | 24.1 | 0.18 | 0.18 | 0.18 | 99 | 1015.3 |
| 20260905130003 | 23 | 41 | 6.4 | 14.5 | 0.18 | 0.18 | 0.18 | 99 | 1015.2 |
| 20260905125759 | 23 | 34 | 6.4 | 9.7 | 0.18 | 0.18 | 0.18 | 99 | 1014.8 |
| 20260905125559 | 23 | 10 | 6.4 | 9.7 | 0.18 | 0.18 | 0.18 | 99 | 1014.7 |
| 20260905125358 | 23 | 24 | 4.8 | 9.7 | 0.18 | 0.18 | 0.18 | 99 | 1014.5 |
| 20260905125159 | 23 | 39 | 3.2 | 8.0 | 0.18 | 0.18 | 0.18 | 99 | 1014.5 |
| 20260905124959 | 24 | 39 | 1.6 | 6.4 | 0.18 | 0.18 | 0.18 | 99 | 1014.5 |
| 20260905124759 | 24 | 39 | 1.6 | 6.4 | 0.18 | 0.18 | 0.18 | 99 | 1014.7 |
| 20260905124400 | 24 | 99 | 1.6 | 3.2 | 0.13 | 0.13 | 0.13 | 98 | 1015.0 |
| 20260905124158 | 24 | 82 | 1.6 | 3.2 | 0.13 | 0.13 | 0.13 | 98 | 1015.0 |
| 20260905123759 | 24 | 205 | 1.6 | 3.2 | 0.08 | 0.08 | 0.08 | 99 | 1015.3 |
| 20260905123358 | 23 | 316 | 1.6 | 6.4 | 0.00 | 0.00 | 0.00 | 99 | 1015.5 |
| 20260905123201 | 23 | 316 | 1.6 | 6.4 | 0.00 | 0.00 | 0.00 | 99 | 1015.6 |
| 20260905122959 | 23 | 328 | 1.6 | 6.4 | 0.00 | 0.00 | 0.00 | 99 | 1015.5 |
| 20260905122759 | 23 | 307 | 1.6 | 6.4 | 0.00 | 0.00 | 0.00 | 99 | 1015.4 |
| 20260905122558 | 23 | 279 | 0.0 | 6.4 | 0.00 | 0.00 | 0.00 | 100 | 1015.1 |
| 20260905122359 | 23 | 88 | 0.0 | 0.0 | 0.00 | 0.00 | 0.00 | 100 | 1014.8 |
| 20260905121959 | 23 | 88 | 0.0 | 0.0 | 0.00 | 0.00 | 0.00 | 100 | 1014.8 |
| 20260905121758 | 23 | 88 | 0.0 | 1.6 | 0.00 | 0.00 | 0.00 | 100 | 1014.7 |
| 20260905121359 | 23 | 88 | 0.0 | 3.2 | 0.00 | 0.00 | 0.00 | 100 | 1014.7 |
| 20260905121159 | 22 | 88 | 0.0 | 3.2 | 0.00 | 0.00 | 0.00 | 100 | 1014.7 |
| 20260905120959 | 22 | 355 | 0.0 | 3.2 | 0.00 | 0.00 | 0.00 | 100 | 1014.8 |
| 20260905120759 | 22 | 357 | 0.0 | 3.2 | 0.00 | 0.00 | 0.00 | 100 | 1014.7 |
| 20260905120359 | 22 | 273 | 1.6 | 3.2 | 0.00 | 0.00 | 0.00 | 100 | 1014.8 |
| 20260905120158 | 22 | 273 | 1.6 | 4.8 | 0.00 | 0.00 | 0.00 | 100 | 1014.8 |
| 20260905120004 | 22 | 273 | 1.6 | 4.8 | 0.00 | 0.00 | 0.00 | 100 | 1014.7 |
| 20260905115759 | 22 | 273 | 1.6 | 4.8 | 0.00 | 0.00 | 0.00 | 100 | 1014.6 |
| 20260905115559 | 22 | 273 | 3.2 | 4.8 | 0.00 | 0.00 | 0.00 | 100 | 1014.7 |
| 20260905115159 | 22 | 269 | 3.2 | 6.4 | 0.00 | 0.00 | 0.00 | 100 | 1014.7 |
| 20260905114959 | 22 | 264 | 1.6 | 6.4 | 0.00 | 0.00 | 0.00 | 100 | 1014.5 |
| 20260905114759 | 22 | 295 | 1.6 | 6.4 | 0.00 | 0.00 | 0.00 | 100 | 1014.5 |
| 20260905114559 | 22 | 37 | 1.6 | 6.4 | 0.00 | 0.00 | 0.00 | 100 | 1014.5 |
| 20260905114359 | 22 | 58 | 0.0 | 6.4 | 0.00 | 0.00 | 0.00 | 100 | 1014.3 |
| 20260905114000 | 22 | 258 | 0.0 | 0.0 | 0.00 | 0.00 | 0.00 | 100 | 1014.2 |
| 20260905113759 | 22 | 258 | 0.0 | 0.0 | 0.00 | 0.00 | 0.00 | 99 | 1014.2 |
| 20260905113559 | 22 | 257 | 0.0 | 0.0 | 0.00 | 0.00 | 0.00 | 99 | 1014.2 |
| 20260905113358 | 22 | 258 | 0.0 | 0.0 | 0.00 | 0.00 | 0.00 | 99 | 1014.2 |
| 20260905113201 | 22 | 258 | 0.0 | 0.0 | 0.00 | 0.00 | 0.00 | 99 | 1014.2 |
| 20260905112959 | 22 | 258 | 0.0 | 0.0 | 0.00 | 0.00 | 0.00 | 100 | 1014.1 |
| 20260905112558 | 22 | 258 | 0.0 | 0.0 | 0.00 | 0.00 | 0.00 | 99 | 1014.1 |
| 20260905112000 | 22 | 258 | 0.0 | 0.0 | 0.00 | 0.00 | 0.00 | 100 | 1013.9 |
| 20260905111759 | 22 | 258 | 0.0 | 0.0 | 0.00 | 0.00 | 0.00 | 100 | 1013.9 |
| 20260905111600 | 22 | 258 | 0.0 | 0.0 | 0.00 | 0.00 | 0.00 | 100 | 1013.8 |
| 20260905111159 | 22 | 258 | 0.0 | 0.0 | 0.00 | 0.00 | 0.00 | 100 | 1013.7 |
| 20260905110959 | 22 | 258 | 0.0 | 0.0 | 0.00 | 0.00 | 0.00 | 100 | 1013.7 |
| 20260905110759 | 22 | 258 | 0.0 | 0.0 | 0.00 | 0.00 | 0.00 | 100 | 1013.7 |
| 20260905110558 | 22 | 258 | 0.0 | 0.0 | 0.00 | 0.00 | 0.00 | 99 | 1013.7 |
| 20260905110159 | 22 | 258 | 0.0 | 0.0 | 0.00 | 0.00 | 0.00 | 99 | 1013.7 |
| 20260905105758 | 22 | 258 | 0.0 | 0.0 | 0.00 | 0.00 | 0.00 | 99 | 1013.6 |
| 20260905105559 | 22 | 258 | 0.0 | 0.0 | 0.00 | 0.00 | 0.00 | 100 | 1013.5 |
| 20260905105358 | 22 | 258 | 0.0 | 0.0 | 0.00 | 0.00 | 0.00 | 100 | 1013.5 |
| 20260905105159 | 22 | 258 | 0.0 | 0.0 | 0.00 | 0.00 | 0.00 | 100 | 1013.5 |
| 20260905104958 | 22 | 258 | 0.0 | 0.0 | 0.00 | 0.00 | 0.00 | 100 | 1013.4 |
| 20260905104800 | 22 | 258 | 0.0 | 0.0 | 0.00 | 0.00 | 0.00 | 99 | 1013.4 |
| 20260905104558 | 22 | 258 | 0.0 | 0.0 | 0.00 | 0.00 | 0.00 | 99 | 1013.4 |
| 20260905104158 | 22 | 258 | 0.0 | 0.0 | 0.00 | 0.00 | 0.00 | 99 | 1013.5 |
| 20260905103558 | 22 | 258 | 0.0 | 0.0 | 0.00 | 0.00 | 0.00 | 99 | 1013.4 |
| 20260905103358 | 22 | 258 | 0.0 | 0.0 | 0.00 | 0.00 | 0.00 | 99 | 1013.3 |
| 20260905103158 | 22 | 258 | 0.0 | 0.0 | 0.00 | 0.00 | 0.00 | 99 | 1013.3 |
| 20260905102959 | 22 | 258 | 0.0 | 0.0 | 0.00 | 0.00 | 0.00 | 100 | 1013.3 |
| 20260905102758 | 22 | 258 | 0.0 | 0.0 | 0.00 | 0.00 | 0.00 | 100 | 1013.4 |
| 20260905102558 | 22 | 258 | 0.0 | 0.0 | 0.00 | 0.00 | 0.00 | 100 | 1013.4 |
| 20260905102359 | 22 | 258 | 0.0 | 0.0 | 0.00 | 0.00 | 0.00 | 100 | 1013.4 |
| 20260905102158 | 22 | 258 | 0.0 | 0.0 | 0.00 | 0.00 | 0.00 | 100 | 1013.4 |
| 20260905101959 | 22 | 258 | 0.0 | 0.0 | 0.00 | 0.00 | 0.00 | 100 | 1013.4 |
| 20260905101559 | 22 | 258 | 0.0 | 0.0 | 0.00 | 0.00 | 0.00 | 99 | 1013.5 |
| 20260905101358 | 22 | 258 | 0.0 | 0.0 | 0.00 | 0.00 | 0.00 | 99 | 1013.5 |
| 20260905101200 | 22 | 258 | 0.0 | 0.0 | 0.00 | 0.00 | 0.00 | 99 | 1013.5 |
| 20260905100958 | 22 | 258 | 0.0 | 0.0 | 0.00 | 0.00 | 0.00 | 99 | 1013.5 |
| 20260905100558 | 22 | 258 | 0.0 | 0.0 | 0.00 | 0.00 | 0.00 | 99 | 1013.5 |
| 20260905100358 | 22 | 258 | 0.0 | 0.0 | 0.00 | 0.00 | 0.00 | 99 | 1013.5 |
| 20260905100158 | 22 | 258 | 0.0 | 0.0 | 0.00 | 0.00 | 0.00 | 99 | 1013.5 |
| 20260905095758 | 22 | 258 | 0.0 | 0.0 | 0.00 | 0.00 | 0.00 | 99 | 1013.5 |
| 20260905095558 | 22 | 258 | 0.0 | 0.0 | 0.00 | 0.00 | 0.00 | 99 | 1013.5 |
| 20260905095358 | 22 | 257 | 0.0 | 0.0 | 0.00 | 0.00 | 0.00 | 99 | 1013.5 |
| 20260905095158 | 22 | 258 | 0.0 | 0.0 | 0.00 | 0.00 | 0.00 | 99 | 1013.5 |
| 20260905094958 | 22 | 258 | 0.0 | 0.0 | 0.00 | 0.00 | 0.00 | 99 | 1013.5 |
| 20260905094758 | 22 | 257 | 0.0 | 0.0 | 0.00 | 0.00 | 0.00 | 99 | 1013.5 |
| 20260905094558 | 22 | 258 | 0.0 | 0.0 | 0.00 | 0.00 | 0.00 | 99 | 1013.5 |
| 20260905094158 | 22 | 257 | 0.0 | 0.0 | 0.00 | 0.00 | 0.00 | 99 | 1013.4 |
| 20260905093958 | 22 | 258 | 0.0 | 0.0 | 0.00 | 0.00 | 0.00 | 99 | 1013.4 |
| 20260905093758 | 22 | 258 | 0.0 | 0.0 | 0.00 | 0.00 | 0.00 | 99 | 1013.4 |
| 20260905093558 | 22 | 258 | 0.0 | 0.0 | 0.00 | 0.00 | 0.00 | 99 | 1013.4 |
| 20260905093158 | 22 | 258 | 0.0 | 0.0 | 0.00 | 0.00 | 0.00 | 99 | 1013.3 |
| 20260905092758 | 22 | 258 | 0.0 | 0.0 | 0.00 | 0.00 | 0.00 | 99 | 1013.2 |
| 20260905092558 | 22 | 257 | 0.0 | 0.0 | 0.00 | 0.00 | 0.00 | 99 | 1013.1 |
| 20260905092358 | 23 | 258 | 0.0 | 0.0 | 0.00 | 0.00 | 0.00 | 99 | 1013.2 |
| 20260905092158 | 23 | 258 | 0.0 | 0.0 | 0.00 | 0.00 | 0.00 | 99 | 1013.1 |
| 20260905091959 | 23 | 257 | 0.0 | 0.0 | 0.00 | 0.00 | 0.00 | 99 | 1013.0 |
| 20260905091558 | 23 | 259 | 0.0 | 0.0 | 0.00 | 0.00 | 0.00 | 99 | 1013.0 |
| 20260905091358 | 23 | 258 | 0.0 | 0.0 | 0.00 | 0.00 | 0.00 | 99 | 1013.1 |
| 20260905091158 | 23 | 257 | 0.0 | 0.0 | 0.00 | 0.00 | 0.00 | 99 | 1013.0 |
| 20260905090958 | 23 | 257 | 0.0 | 0.0 | 0.00 | 0.00 | 0.00 | 99 | 1013.0 |
| 20260905090559 | 23 | 257 | 0.0 | 0.0 | 0.00 | 0.00 | 0.00 | 99 | 1013.0 |
| 20260905090158 | 23 | 257 | 0.0 | 0.0 | 0.00 | 0.00 | 0.00 | 99 | 1013.0 |
| 20260905090002 | 23 | 257 | 0.0 | 0.0 | 0.00 | 0.00 | 0.00 | 99 | 1012.9 |
| 20260905085800 | 23 | 257 | 0.0 | 0.0 | 0.00 | 0.00 | 0.00 | 99 | 1012.9 |
| 20260905085559 | 23 | 257 | 0.0 | 0.0 | 0.00 | 0.00 | 0.00 | 99 | 1012.9 |
| 20260905085159 | 23 | 257 | 0.0 | 0.0 | 0.00 | 0.00 | 0.00 | 99 | 1013.0 |
| 20260905084759 | 23 | 259 | 0.0 | 0.0 | 0.00 | 0.00 | 0.00 | 99 | 1013.1 |
| 20260905084559 | 23 | 253 | 0.0 | 0.0 | 0.00 | 0.00 | 0.00 | 99 | 1013.1 |
| 20260905084359 | 23 | 253 | 0.0 | 0.0 | 0.00 | 0.00 | 0.00 | 99 | 1013.1 |
| 20260905083758 | 23 | 196 | 0.0 | 1.6 | 0.00 | 0.00 | 0.00 | 99 | 1013.1 |
| 20260905083559 | 23 | 196 | 0.0 | 1.6 | 0.00 | 0.00 | 0.00 | 99 | 1013.2 |
| 20260905083358 | 23 | 196 | 0.0 | 1.6 | 0.00 | 0.00 | 0.00 | 99 | 1013.2 |
| 20260905083159 | 23 | 236 | 0.0 | 1.6 | 0.00 | 0.00 | 0.00 | 99 | 1013.2 |
| 20260905082958 | 23 | 305 | 1.6 | 1.6 | 0.00 | 0.00 | 0.00 | 99 | 1013.3 |
| 20260905082759 | 23 | 314 | 1.6 | 8.0 | 0.00 | 0.00 | 0.00 | 99 | 1013.3 |
| 20260905082558 | 23 | 314 | 3.2 | 12.9 | 0.00 | 0.00 | 0.00 | 100 | 1013.2 |
| 20260905082359 | 23 | 312 | 3.2 | 12.9 | 0.00 | 0.00 | 0.00 | 100 | 1013.3 |
| 20260905082158 | 23 | 19 | 3.2 | 12.9 | 0.00 | 0.00 | 0.00 | 100 | 1013.3 |
| 20260905081959 | 23 | 34 | 1.6 | 12.9 | 0.00 | 0.00 | 0.00 | 100 | 1013.3 |
| 20260905081559 | 22 | 15 | 0.0 | 4.8 | 0.00 | 0.00 | 0.00 | 99 | 1013.2 |
| 20260905081358 | 22 | 262 | 0.0 | 0.0 | 0.00 | 0.00 | 0.00 | 99 | 1013.0 |
| 20260905081159 | 22 | 262 | 0.0 | 0.0 | 0.00 | 0.00 | 0.00 | 99 | 1013.0 |
| 20260905080958 | 22 | 262 | 0.0 | 0.0 | 0.00 | 0.00 | 0.00 | 99 | 1013.0 |
| 20260905080558 | 22 | 262 | 0.0 | 0.0 | 0.00 | 0.00 | 0.00 | 99 | 1013.0 |
| 20260905080359 | 22 | 262 | 0.0 | 0.0 | 0.00 | 0.00 | 0.00 | 100 | 1012.9 |
| 20260905080158 | 22 | 262 | 0.0 | 0.0 | 0.00 | 0.00 | 0.00 | 100 | 1012.8 |
| 20260905080004 | 22 | 262 | 0.0 | 0.0 | 0.00 | 0.00 | 0.00 | 100 | 1013.0 |
| 20260905075758 | 22 | 262 | 0.0 | 0.0 | 0.00 | 0.00 | 0.00 | 100 | 1012.9 |
| 20260905075400 | 22 | 262 | 0.0 | 0.0 | 0.00 | 0.00 | 0.00 | 100 | 1013.0 |
| 20260905075159 | 22 | 262 | 0.0 | 0.0 | 0.00 | 0.00 | 0.00 | 100 | 1013.0 |
| 20260905074958 | 22 | 262 | 0.0 | 0.0 | 0.00 | 0.00 | 0.00 | 100 | 1013.0 |
| 20260905074759 | 22 | 262 | 0.0 | 0.0 | 0.00 | 0.00 | 0.00 | 100 | 1013.0 |
| 20260905074558 | 22 | 289 | 0.0 | 0.0 | 0.00 | 0.00 | 0.00 | 99 | 1012.9 |
| 20260905074158 | 22 | 289 | 0.0 | 0.0 | 0.00 | 0.00 | 0.00 | 99 | 1013.0 |
| 20260905074001 | 22 | 289 | 0.0 | 0.0 | 0.00 | 0.00 | 0.00 | 99 | 1013.0 |
| 20260905073758 | 22 | 289 | 0.0 | 0.0 | 0.00 | 0.00 | 0.00 | 99 | 1013.0 |
| 20260905073358 | 22 | 289 | 0.0 | 0.0 | 0.00 | 0.00 | 0.00 | 99 | 1013.0 |
| 20260905073159 | 22 | 289 | 0.0 | 0.0 | 0.00 | 0.00 | 0.00 | 99 | 1013.0 |
| 20260905072759 | 22 | 289 | 0.0 | 0.0 | 0.00 | 0.00 | 0.00 | 99 | 1013.1 |
| 20260905072558 | 22 | 289 | 0.0 | 0.0 | 0.00 | 0.00 | 0.00 | 99 | 1013.2 |
| 20260905072359 | 22 | 289 | 0.0 | 0.0 | 0.00 | 0.00 | 0.00 | 99 | 1013.2 |
| 20260905072158 | 22 | 289 | 0.0 | 0.0 | 0.00 | 0.00 | 0.00 | 99 | 1013.2 |
| 20260905071959 | 22 | 289 | 0.0 | 0.0 | 0.00 | 0.00 | 0.00 | 99 | 1013.3 |
| 20260905071559 | 22 | 289 | 0.0 | 0.0 | 0.00 | 0.00 | 0.00 | 99 | 1013.3 |
| 20260905071358 | 22 | 289 | 0.0 | 0.0 | 0.00 | 0.00 | 0.00 | 99 | 1013.2 |
| 20260905071159 | 22 | 289 | 0.0 | 0.0 | 0.00 | 0.00 | 0.00 | 99 | 1013.2 |
| 20260905070958 | 22 | 289 | 0.0 | 0.0 | 0.00 | 0.00 | 0.00 | 99 | 1013.2 |
| 20260905070759 | 23 | 289 | 0.0 | 0.0 | 0.00 | 0.00 | 0.00 | 99 | 1013.2 |
| 20260905070558 | 23 | 289 | 0.0 | 0.0 | 0.00 | 0.00 | 0.00 | 99 | 1013.3 |
| 20260905070359 | 23 | 289 | 0.0 | 0.0 | 0.00 | 0.00 | 0.00 | 99 | 1013.2 |
| 20260905070158 | 23 | 289 | 0.0 | 0.0 | 0.00 | 0.00 | 0.00 | 99 | 1013.3 |
| 20260905070002 | 23 | 289 | 0.0 | 0.0 | 0.00 | 0.00 | 0.00 | 99 | 1013.3 |
| 20260905065758 | 23 | 289 | 0.0 | 0.0 | 0.00 | 0.00 | 0.00 | 99 | 1013.3 |
| 20260905065558 | 23 | 289 | 0.0 | 0.0 | 0.00 | 0.00 | 0.00 | 99 | 1013.3 |
| 20260905065358 | 23 | 289 | 0.0 | 0.0 | 0.00 | 0.00 | 0.00 | 99 | 1013.3 |
| 20260905065158 | 23 | 289 | 0.0 | 0.0 | 0.00 | 0.00 | 0.00 | 99 | 1013.3 |
| 20260905065001 | 23 | 289 | 0.0 | 0.0 | 0.00 | 0.00 | 0.00 | 99 | 1013.3 |
| 20260905064758 | 23 | 289 | 0.0 | 0.0 | 0.00 | 0.00 | 0.00 | 99 | 1013.4 |
| 20260905064558 | 23 | 289 | 0.0 | 0.0 | 0.00 | 0.00 | 0.00 | 99 | 1013.4 |
| 20260905064158 | 23 | 289 | 0.0 | 0.0 | 0.00 | 0.00 | 0.00 | 99 | 1013.5 |
| 20260905063958 | 23 | 289 | 0.0 | 0.0 | 0.00 | 0.00 | 0.00 | 99 | 1013.5 |
| 20260905063759 | 23 | 289 | 0.0 | 0.0 | 0.00 | 0.00 | 0.00 | 99 | 1013.5 |
| 20260905063558 | 23 | 289 | 0.0 | 0.0 | 0.00 | 0.00 | 0.00 | 99 | 1013.7 |
| 20260905063358 | 23 | 289 | 0.0 | 0.0 | 0.00 | 0.00 | 0.00 | 99 | 1013.7 |
| 20260905062959 | 23 | 289 | 0.0 | 0.0 | 0.00 | 0.00 | 0.00 | 99 | 1013.7 |
| 20260905062758 | 23 | 289 | 0.0 | 0.0 | 0.00 | 0.00 | 0.00 | 99 | 1013.7 |
| 20260905062558 | 23 | 289 | 0.0 | 0.0 | 0.00 | 0.00 | 0.00 | 99 | 1013.7 |
| 20260905062359 | 23 | 289 | 0.0 | 0.0 | 0.00 | 0.00 | 0.00 | 99 | 1013.7 |
| 20260905062158 | 23 | 289 | 0.0 | 0.0 | 0.00 | 0.00 | 0.00 | 99 | 1013.8 |
| 20260905062001 | 23 | 289 | 0.0 | 0.0 | 0.00 | 0.00 | 0.00 | 99 | 1013.9 |
| 20260905061758 | 23 | 289 | 0.0 | 0.0 | 0.00 | 0.00 | 0.00 | 99 | 1013.9 |
| 20260905061359 | 23 | 289 | 0.0 | 0.0 | 0.00 | 0.00 | 0.00 | 99 | 1013.9 |
| 20260905061159 | 23 | 289 | 0.0 | 0.0 | 0.00 | 0.00 | 0.00 | 99 | 1013.9 |
| 20260905060958 | 23 | 289 | 0.0 | 0.0 | 0.00 | 0.00 | 0.00 | 99 | 1014.0 |
| 20260905060759 | 23 | 289 | 0.0 | 0.0 | 0.00 | 0.00 | 0.00 | 99 | 1014.0 |
| 20260905060558 | 23 | 289 | 0.0 | 0.0 | 0.00 | 0.00 | 0.00 | 99 | 1014.0 |
| 20260905060359 | 23 | 289 | 0.0 | 0.0 | 0.00 | 0.00 | 0.00 | 99 | 1014.0 |
| 20260905060158 | 23 | 289 | 0.0 | 0.0 | 0.00 | 0.00 | 0.00 | 99 | 1014.0 |
| 20260905060004 | 23 | 289 | 0.0 | 0.0 | 0.00 | 0.00 | 0.00 | 99 | 1014.0 |
| 20260905055758 | 23 | 289 | 0.0 | 0.0 | 0.00 | 0.00 | 0.00 | 99 | 1014.0 |
| 20260905055358 | 23 | 289 | 0.0 | 0.0 | 0.00 | 0.00 | 0.00 | 99 | 1014.0 |
| 20260905055158 | 23 | 289 | 0.0 | 0.0 | 0.00 | 0.00 | 0.00 | 99 | 1014.0 |
| 20260905054959 | 23 | 289 | 0.0 | 0.0 | 0.00 | 0.00 | 0.00 | 98 | 1014.1 |
| 20260905054759 | 23 | 289 | 0.0 | 0.0 | 0.00 | 0.00 | 0.00 | 98 | 1014.1 |
| 20260905054359 | 23 | 289 | 0.0 | 0.0 | 0.00 | 0.00 | 0.00 | 99 | 1014.1 |
| 20260905054158 | 23 | 289 | 0.0 | 0.0 | 0.00 | 0.00 | 0.00 | 99 | 1014.1 |
| 20260905053758 | 23 | 289 | 0.0 | 0.0 | 0.00 | 0.00 | 0.00 | 99 | 1014.0 |
| 20260905053559 | 23 | 289 | 0.0 | 0.0 | 0.00 | 0.00 | 0.00 | 99 | 1014.0 |
| 20260905053358 | 23 | 289 | 0.0 | 0.0 | 0.00 | 0.00 | 0.00 | 99 | 1014.0 |
| 20260905053159 | 23 | 289 | 0.0 | 0.0 | 0.00 | 0.00 | 0.00 | 99 | 1014.0 |
| 20260905052958 | 23 | 289 | 0.0 | 0.0 | 0.00 | 0.00 | 0.00 | 99 | 1013.9 |
| 20260905052759 | 23 | 289 | 0.0 | 0.0 | 0.00 | 0.00 | 0.00 | 98 | 1014.0 |
| 20260905052558 | 23 | 289 | 0.0 | 0.0 | 0.00 | 0.00 | 0.00 | 98 | 1014.0 |
| 20260905052359 | 23 | 289 | 0.0 | 0.0 | 0.00 | 0.00 | 0.00 | 98 | 1014.0 |
| 20260905052158 | 23 | 289 | 0.0 | 0.0 | 0.00 | 0.00 | 0.00 | 98 | 1014.0 |
| 20260905052000 | 23 | 289 | 0.0 | 0.0 | 0.00 | 0.00 | 0.00 | 98 | 1014.0 |
| 20260905051758 | 23 | 289 | 0.0 | 0.0 | 0.00 | 0.00 | 0.00 | 98 | 1014.0 |
| 20260905051559 | 23 | 289 | 0.0 | 0.0 | 0.00 | 0.00 | 0.00 | 98 | 1014.0 |
| 20260905051358 | 23 | 289 | 0.0 | 0.0 | 0.00 | 0.00 | 0.00 | 98 | 1014.0 |
| 20260905051159 | 23 | 289 | 0.0 | 0.0 | 0.00 | 0.00 | 0.00 | 98 | 1014.0 |
| 20260905050958 | 23 | 289 | 0.0 | 0.0 | 0.00 | 0.00 | 0.00 | 99 | 1014.0 |
| 20260905050759 | 23 | 289 | 0.0 | 0.0 | 0.00 | 0.00 | 0.00 | 99 | 1014.0 |
| 20260905050359 | 23 | 289 | 0.0 | 0.0 | 0.00 | 0.00 | 0.00 | 98 | 1013.9 |
| 20260905050158 | 23 | 289 | 0.0 | 0.0 | 0.00 | 0.00 | 0.00 | 98 | 1014.0 |
| 20260905050002 | 23 | 289 | 0.0 | 0.0 | 0.00 | 0.00 | 0.00 | 98 | 1014.0 |
| 20260905045758 | 23 | 289 | 0.0 | 0.0 | 0.00 | 0.00 | 0.00 | 98 | 1014.0 |
| 20260905045559 | 23 | 289 | 0.0 | 0.0 | 0.00 | 0.00 | 0.00 | 98 | 1014.0 |
| 20260905045400 | 23 | 289 | 0.0 | 0.0 | 0.00 | 0.00 | 0.00 | 99 | 1014.0 |
| 20260905045200 | 23 | 289 | 0.0 | 0.0 | 0.00 | 0.00 | 0.00 | 99 | 1014.1 |
| 20260905044400 | 23 | 289 | 0.0 | 0.0 | 0.00 | 0.00 | 0.00 | 98 | 1014.1 |
| 20260905044000 | 23 | 289 | 0.0 | 0.0 | 0.00 | 0.00 | 0.00 | 98 | 1014.1 |
| 20260905043600 | 23 | 289 | 0.0 | 0.0 | 0.00 | 0.00 | 0.00 | 98 | 1014.1 |
| 20260905043400 | 23 | 289 | 0.0 | 0.0 | 0.00 | 0.00 | 0.00 | 98 | 1014.2 |
| 20260905043200 | 23 | 289 | 0.0 | 0.0 | 0.00 | 0.00 | 0.00 | 98 | 1014.1 |
| 20260905042800 | 23 | 289 | 0.0 | 0.0 | 0.00 | 0.00 | 0.00 | 98 | 1014.1 |
| 20260905042600 | 23 | 289 | 0.0 | 0.0 | 0.00 | 0.00 | 0.00 | 98 | 1014.2 |
| 20260905042400 | 23 | 289 | 0.0 | 0.0 | 0.00 | 0.00 | 0.00 | 98 | 1014.1 |
| 20260905042200 | 23 | 289 | 0.0 | 0.0 | 0.00 | 0.00 | 0.00 | 98 | 1014.2 |
| 20260905042000 | 23 | 289 | 0.0 | 0.0 | 0.00 | 0.00 | 0.00 | 98 | 1014.2 |
| 20260905041800 | 23 | 289 | 0.0 | 0.0 | 0.00 | 0.00 | 0.00 | 97 | 1014.1 |
| 20260905041600 | 23 | 289 | 0.0 | 0.0 | 0.00 | 0.00 | 0.00 | 97 | 1014.1 |
| 20260905041001 | 24 | 289 | 0.0 | 0.0 | 0.00 | 0.00 | 0.00 | 97 | 1014.2 |
| 20260905040800 | 24 | 289 | 0.0 | 0.0 | 0.00 | 0.00 | 0.00 | 97 | 1014.2 |
| 20260905040600 | 24 | 289 | 0.0 | 0.0 | 0.00 | 0.00 | 0.00 | 98 | 1014.2 |
| 20260905040400 | 24 | 289 | 0.0 | 0.0 | 0.00 | 0.00 | 0.00 | 98 | 1014.2 |
| 20260905040200 | 24 | 289 | 0.0 | 0.0 | 0.00 | 0.00 | 0.00 | 98 | 1014.2 |
| 20260905040005 | 24 | 289 | 0.0 | 0.0 | 0.00 | 0.00 | 0.00 | 98 | 1014.2 |
| 20260905035800 | 24 | 289 | 0.0 | 0.0 | 0.00 | 0.00 | 0.00 | 98 | 1014.2 |
| 20260905035601 | 24 | 289 | 0.0 | 0.0 | 0.00 | 0.00 | 0.00 | 98 | 1014.2 |
| 20260905035400 | 24 | 289 | 0.0 | 0.0 | 0.00 | 0.00 | 0.00 | 97 | 1014.2 |
| 20260905035201 | 24 | 289 | 0.0 | 0.0 | 0.00 | 0.00 | 0.00 | 97 | 1014.3 |
| 20260905035000 | 24 | 289 | 0.0 | 0.0 | 0.00 | 0.00 | 0.00 | 97 | 1014.2 |
| 20260905034801 | 24 | 289 | 0.0 | 0.0 | 0.00 | 0.00 | 0.00 | 97 | 1014.2 |
| 20260905034600 | 24 | 289 | 0.0 | 0.0 | 0.00 | 0.00 | 0.00 | 97 | 1014.2 |
| 20260905034402 | 24 | 289 | 0.0 | 0.0 | 0.00 | 0.00 | 0.00 | 97 | 1014.2 |
| 20260905034201 | 24 | 289 | 0.0 | 0.0 | 0.00 | 0.00 | 0.00 | 97 | 1014.2 |
| 20260905034001 | 24 | 289 | 0.0 | 0.0 | 0.00 | 0.00 | 0.00 | 97 | 1014.2 |
| 20260905033800 | 24 | 289 | 0.0 | 0.0 | 0.00 | 0.00 | 0.00 | 97 | 1014.2 |
| 20260905033601 | 24 | 289 | 0.0 | 0.0 | 0.00 | 0.00 | 0.00 | 97 | 1014.2 |
| 20260905033201 | 24 | 289 | 0.0 | 0.0 | 0.00 | 0.00 | 0.00 | 97 | 1014.2 |
| 20260905033000 | 24 | 289 | 0.0 | 0.0 | 0.00 | 0.00 | 0.00 | 97 | 1014.2 |
| 20260905032600 | 24 | 289 | 0.0 | 0.0 | 0.00 | 0.00 | 0.00 | 96 | 1014.3 |
| 20260905032401 | 24 | 289 | 0.0 | 0.0 | 0.00 | 0.00 | 0.00 | 96 | 1014.3 |
| 20260905032200 | 24 | 289 | 0.0 | 0.0 | 0.00 | 0.00 | 0.00 | 96 | 1014.3 |
| 20260905032003 | 24 | 289 | 0.0 | 0.0 | 0.00 | 0.00 | 0.00 | 96 | 1014.3 |
| 20260905031800 | 24 | 289 | 0.0 | 0.0 | 0.00 | 0.00 | 0.00 | 96 | 1014.3 |
| 20260905031601 | 25 | 289 | 0.0 | 0.0 | 0.00 | 0.00 | 0.00 | 96 | 1014.3 |
| 20260905031400 | 25 | 289 | 0.0 | 0.0 | 0.00 | 0.00 | 0.00 | 97 | 1014.3 |
| 20260905031201 | 25 | 289 | 0.0 | 0.0 | 0.00 | 0.00 | 0.00 | 97 | 1014.3 |
| 20260905031000 | 25 | 289 | 0.0 | 0.0 | 0.00 | 0.00 | 0.00 | 97 | 1014.3 |
| 20260905030801 | 25 | 289 | 0.0 | 0.0 | 0.00 | 0.00 | 0.00 | 97 | 1014.3 |
| 20260905030401 | 25 | 289 | 0.0 | 0.0 | 0.00 | 0.00 | 0.00 | 97 | 1014.3 |
| 20260905030200 | 24 | 289 | 0.0 | 0.0 | 0.00 | 0.00 | 0.00 | 97 | 1014.3 |
| 20260905030003 | 24 | 289 | 0.0 | 0.0 | 0.00 | 0.00 | 0.00 | 97 | 1014.4 |
| 20260905025601 | 24 | 289 | 0.0 | 0.0 | 0.00 | 0.00 | 0.00 | 95 | 1014.3 |
| 20260905025400 | 24 | 289 | 0.0 | 0.0 | 0.00 | 0.00 | 0.00 | 95 | 1014.4 |
| 20260905025202 | 25 | 289 | 0.0 | 0.0 | 0.00 | 0.00 | 0.00 | 95 | 1014.4 |
| 20260905025000 | 25 | 289 | 0.0 | 0.0 | 0.00 | 0.00 | 0.00 | 95 | 1014.4 |
| 20260905024801 | 25 | 289 | 0.0 | 0.0 | 0.00 | 0.00 | 0.00 | 95 | 1014.4 |
| 20260905024600 | 25 | 289 | 0.0 | 0.0 | 0.00 | 0.00 | 0.00 | 95 | 1014.4 |
| 20260905024401 | 25 | 289 | 0.0 | 0.0 | 0.00 | 0.00 | 0.00 | 95 | 1014.4 |
| 20260905024200 | 25 | 289 | 0.0 | 0.0 | 0.00 | 0.00 | 0.00 | 95 | 1014.4 |
| 20260905024001 | 25 | 289 | 0.0 | 0.0 | 0.00 | 0.00 | 0.00 | 95 | 1014.3 |
| 20260905023800 | 25 | 289 | 0.0 | 0.0 | 0.00 | 0.00 | 0.00 | 95 | 1014.3 |
| 20260905023603 | 25 | 289 | 0.0 | 0.0 | 0.00 | 0.00 | 0.00 | 95 | 1014.3 |
| 20260905023400 | 25 | 289 | 0.0 | 0.0 | 0.00 | 0.00 | 0.00 | 94 | 1014.3 |
| 20260905023000 | 25 | 289 | 0.0 | 0.0 | 0.00 | 0.00 | 0.00 | 95 | 1014.3 |
| 20260905022801 | 25 | 289 | 0.0 | 0.0 | 0.00 | 0.00 | 0.00 | 95 | 1014.2 |
| 20260905022401 | 25 | 289 | 0.0 | 0.0 | 0.00 | 0.00 | 0.00 | 95 | 1014.2 |
| 20260905022200 | 25 | 289 | 0.0 | 0.0 | 0.00 | 0.00 | 0.00 | 95 | 1014.2 |
| 20260905021800 | 25 | 289 | 0.0 | 0.0 | 0.00 | 0.00 | 0.00 | 94 | 1014.2 |
| 20260905021601 | 25 | 289 | 0.0 | 0.0 | 0.00 | 0.00 | 0.00 | 94 | 1014.2 |
| 20260905021400 | 25 | 289 | 0.0 | 0.0 | 0.00 | 0.00 | 0.00 | 94 | 1014.2 |
| 20260905021201 | 25 | 289 | 0.0 | 0.0 | 0.00 | 0.00 | 0.00 | 94 | 1014.2 |
| 20260905021000 | 25 | 289 | 0.0 | 0.0 | 0.00 | 0.00 | 0.00 | 93 | 1014.2 |
| 20260905020801 | 25 | 289 | 0.0 | 0.0 | 0.00 | 0.00 | 0.00 | 93 | 1014.2 |
| 20260905020600 | 25 | 289 | 0.0 | 0.0 | 0.00 | 0.00 | 0.00 | 93 | 1014.1 |
| 20260905020401 | 25 | 289 | 0.0 | 0.0 | 0.00 | 0.00 | 0.00 | 94 | 1014.1 |
| 20260905020200 | 25 | 289 | 0.0 | 0.0 | 0.00 | 0.00 | 0.00 | 94 | 1014.2 |
| 20260905020005 | 25 | 289 | 0.0 | 0.0 | 0.00 | 0.00 | 0.00 | 94 | 1014.1 |
| 20260905015800 | 25 | 289 | 0.0 | 0.0 | 0.00 | 0.00 | 0.00 | 94 | 1014.1 |
| 20260905015601 | 25 | 289 | 0.0 | 0.0 | 0.00 | 0.00 | 0.00 | 94 | 1014.1 |
| 20260905015400 | 25 | 289 | 0.0 | 0.0 | 0.00 | 0.00 | 0.00 | 93 | 1014.1 |
| 20260905015201 | 25 | 289 | 0.0 | 0.0 | 0.00 | 0.00 | 0.00 | 93 | 1014.1 |
| 20260905015000 | 25 | 289 | 0.0 | 0.0 | 0.00 | 0.00 | 0.00 | 93 | 1014.1 |
| 20260905014801 | 25 | 289 | 0.0 | 0.0 | 0.00 | 0.00 | 0.00 | 92 | 1014.1 |
| 20260905014600 | 26 | 289 | 0.0 | 0.0 | 0.00 | 0.00 | 0.00 | 92 | 1014.0 |
| 20260905014401 | 26 | 289 | 0.0 | 0.0 | 0.00 | 0.00 | 0.00 | 92 | 1014.0 |
| 20260905014200 | 26 | 289 | 0.0 | 0.0 | 0.00 | 0.00 | 0.00 | 92 | 1013.9 |
| 20260905014001 | 26 | 289 | 0.0 | 0.0 | 0.00 | 0.00 | 0.00 | 92 | 1013.9 |
| 20260905013800 | 26 | 289 | 0.0 | 0.0 | 0.00 | 0.00 | 0.00 | 92 | 1013.9 |
| 20260905013601 | 26 | 289 | 0.0 | 0.0 | 0.00 | 0.00 | 0.00 | 91 | 1013.9 |
| 20260905013400 | 26 | 289 | 0.0 | 0.0 | 0.00 | 0.00 | 0.00 | 91 | 1013.9 |
| 20260905013202 | 26 | 289 | 0.0 | 0.0 | 0.00 | 0.00 | 0.00 | 91 | 1013.9 |
| 20260905013000 | 26 | 289 | 0.0 | 0.0 | 0.00 | 0.00 | 0.00 | 91 | 1013.9 |
| 20260905012801 | 26 | 289 | 0.0 | 0.0 | 0.00 | 0.00 | 0.00 | 91 | 1013.9 |
| 20260905012600 | 26 | 289 | 0.0 | 0.0 | 0.00 | 0.00 | 0.00 | 91 | 1013.9 |
| 20260905012401 | 26 | 289 | 0.0 | 0.0 | 0.00 | 0.00 | 0.00 | 91 | 1013.9 |
| 20260905012001 | 26 | 289 | 0.0 | 0.0 | 0.00 | 0.00 | 0.00 | 91 | 1013.8 |
| 20260905011800 | 26 | 289 | 0.0 | 0.0 | 0.00 | 0.00 | 0.00 | 91 | 1013.8 |
| 20260905011601 | 26 | 289 | 0.0 | 0.0 | 0.00 | 0.00 | 0.00 | 91 | 1013.8 |
| 20260905011400 | 26 | 289 | 0.0 | 0.0 | 0.00 | 0.00 | 0.00 | 90 | 1013.8 |
| 20260905011201 | 26 | 289 | 0.0 | 0.0 | 0.00 | 0.00 | 0.00 | 90 | 1013.8 |
| 20260905011000 | 26 | 289 | 0.0 | 0.0 | 0.00 | 0.00 | 0.00 | 90 | 1013.8 |
| 20260905010801 | 26 | 289 | 0.0 | 0.0 | 0.00 | 0.00 | 0.00 | 89 | 1013.8 |
| 20260905010600 | 26 | 289 | 0.0 | 0.0 | 0.00 | 0.00 | 0.00 | 89 | 1013.8 |
| 20260905010401 | 26 | 289 | 0.0 | 0.0 | 0.00 | 0.00 | 0.00 | 89 | 1013.7 |
| 20260905010200 | 26 | 289 | 0.0 | 0.0 | 0.00 | 0.00 | 0.00 | 89 | 1013.7 |
| 20260905005601 | 27 | 289 | 0.0 | 0.0 | 0.00 | 0.00 | 0.00 | 88 | 1013.6 |
| 20260905005400 | 27 | 289 | 0.0 | 0.0 | 0.00 | 0.00 | 0.00 | 88 | 1013.6 |
| 20260905005200 | 27 | 289 | 0.0 | 0.0 | 0.00 | 0.00 | 0.00 | 87 | 1013.6 |
| 20260905005000 | 27 | 289 | 0.0 | 0.0 | 0.00 | 0.00 | 0.00 | 87 | 1013.6 |
| 20260905004801 | 27 | 289 | 0.0 | 0.0 | 0.00 | 0.00 | 0.00 | 87 | 1013.6 |
| 20260905004600 | 27 | 289 | 0.0 | 0.0 | 0.00 | 0.00 | 0.00 | 87 | 1013.6 |
| 20260905004401 | 27 | 289 | 0.0 | 0.0 | 0.00 | 0.00 | 0.00 | 88 | 1013.6 |
| 20260905004200 | 27 | 289 | 0.0 | 0.0 | 0.00 | 0.00 | 0.00 | 88 | 1013.6 |
| 20260905004002 | 27 | 289 | 0.0 | 0.0 | 0.00 | 0.00 | 0.00 | 88 | 1013.6 |
| 20260905003800 | 27 | 289 | 0.0 | 0.0 | 0.00 | 0.00 | 0.00 | 87 | 1013.5 |
| 20260905003601 | 27 | 289 | 0.0 | 0.0 | 0.00 | 0.00 | 0.00 | 87 | 1013.5 |
| 20260905003000 | 27 | 289 | 0.0 | 0.0 | 0.00 | 0.00 | 0.00 | 85 | 1013.6 |
| 20260905002600 | 28 | 289 | 0.0 | 0.0 | 0.00 | 0.00 | 0.00 | 85 | 1013.5 |
| 20260905002401 | 28 | 289 | 0.0 | 0.0 | 0.00 | 0.00 | 0.00 | 85 | 1013.5 |
| 20260905002200 | 28 | 289 | 0.0 | 0.0 | 0.00 | 0.00 | 0.00 | 83 | 1013.5 |
| 20260905002001 | 28 | 289 | 0.0 | 0.0 | 0.00 | 0.00 | 0.00 | 82 | 1013.4 |
| 20260905001800 | 28 | 289 | 0.0 | 0.0 | 0.00 | 0.00 | 0.00 | 82 | 1013.5 |
| 20260905001400 | 28 | 289 | 0.0 | 0.0 | 0.00 | 0.00 | 0.00 | 82 | 1013.5 |
| 20260905001201 | 28 | 289 | 0.0 | 0.0 | 0.00 | 0.00 | 0.00 | 81 | 1013.4 |
| 20260905000801 | 28 | 289 | 0.0 | 0.0 | 0.00 | 0.00 | 0.00 | 81 | 1013.4 |
| 20260905000602 | 29 | 290 | 0.0 | 0.0 | 0.00 | 0.00 | 0.00 | 81 | 1013.4 |
| 20260905000402 | 29 | 290 | 0.0 | 0.0 | 0.00 | 0.00 | 0.00 | 83 | 1013.4 |
| 20260905000200 | 29 | 290 | 0.0 | 0.0 | 0.00 | 0.00 | 0.00 | 82 | 1013.4 |
| 20260905000004 | 29 | 290 | 0.0 | 0.0 | 0.00 | 0.00 | 0.00 | 82 | 1013.4 |
| 20260904235800 | 30 | 290 | 0.0 | 0.0 | 0.00 | 0.00 | 0.00 | 81 | 1013.4 |
| 20260904235602 | 30 | 290 | 0.0 | 0.0 | 0.00 | 0.00 | 0.00 | 80 | 1013.4 |
| 20260904235400 | 30 | 290 | 0.0 | 0.0 | 0.00 | 0.00 | 0.00 | 79 | 1013.4 |
| 20260904235200 | 30 | 290 | 0.0 | 0.0 | 0.00 | 0.00 | 0.00 | 77 | 1013.4 |
| 20260904235000 | 30 | 290 | 0.0 | 0.0 | 0.00 | 0.00 | 0.00 | 77 | 1013.4 |
| 20260904234800 | 30 | 288 | 0.0 | 0.0 | 0.00 | 0.00 | 0.00 | 76 | 1013.4 |
| 20260904234601 | 30 | 288 | 0.0 | 0.0 | 0.00 | 0.00 | 0.00 | 75 | 1013.4 |
| 20260904234400 | 30 | 288 | 0.0 | 0.0 | 0.00 | 0.00 | 0.00 | 75 | 1013.3 |
| 20260904234200 | 30 | 288 | 0.0 | 0.0 | 0.00 | 0.00 | 0.00 | 75 | 1013.3 |
| 20260904234000 | 30 | 288 | 0.0 | 0.0 | 0.00 | 0.00 | 0.00 | 75 | 1013.3 |
| 20260904233800 | 30 | 288 | 0.0 | 0.0 | 0.00 | 0.00 | 0.00 | 74 | 1013.3 |
| 20260904233602 | 30 | 288 | 0.0 | 0.0 | 0.00 | 0.00 | 0.00 | 74 | 1013.4 |
| 20260904233401 | 31 | 288 | 0.0 | 0.0 | 0.00 | 0.00 | 0.00 | 74 | 1013.4 |
| 20260904233201 | 31 | 288 | 0.0 | 0.0 | 0.00 | 0.00 | 0.00 | 73 | 1013.4 |
| 20260904232801 | 31 | 288 | 0.0 | 0.0 | 0.00 | 0.00 | 0.00 | 73 | 1013.4 |
| 20260904232601 | 31 | 288 | 0.0 | 0.0 | 0.00 | 0.00 | 0.00 | 72 | 1013.4 |
| 20260904232200 | 31 | 288 | 0.0 | 0.0 | 0.00 | 0.00 | 0.00 | 70 | 1013.4 |
| 20260904231800 | 31 | 288 | 0.0 | 0.0 | 0.00 | 0.00 | 0.00 | 70 | 1013.5 |
| 20260904231400 | 32 | 288 | 0.0 | 0.0 | 0.00 | 0.00 | 0.00 | 69 | 1013.5 |
| 20260904231200 | 32 | 288 | 0.0 | 0.0 | 0.00 | 0.00 | 0.00 | 69 | 1013.5 |
| 20260904231000 | 32 | 295 | 0.0 | 0.0 | 0.00 | 0.00 | 0.00 | 67 | 1013.5 |
| 20260904230801 | 32 | 295 | 0.0 | 0.0 | 0.00 | 0.00 | 0.00 | 65 | 1013.5 |
| 20260904230600 | 32 | 316 | 0.0 | 0.0 | 0.00 | 0.00 | 0.00 | 65 | 1013.5 |
| 20260904230401 | 32 | 319 | 0.0 | 0.0 | 0.00 | 0.00 | 0.00 | 64 | 1013.5 |
| 20260904230200 | 33 | 319 | 0.0 | 0.0 | 0.00 | 0.00 | 0.00 | 63 | 1013.5 |
| 20260904230003 | 33 | 319 | 0.0 | 1.6 | 0.00 | 0.00 | 0.00 | 63 | 1013.5 |
| 20260904225600 | 33 | 319 | 0.0 | 4.8 | 0.00 | 0.00 | 0.00 | 62 | 1013.5 |
| 20260904225400 | 33 | 320 | 0.0 | 4.8 | 0.00 | 0.00 | 0.00 | 62 | 1013.5 |
| 20260904225200 | 33 | 290 | 0.0 | 4.8 | 0.00 | 0.00 | 0.00 | 61 | 1013.5 |
| 20260904224800 | 33 | 276 | 0.0 | 0.0 | 0.00 | 0.00 | 0.00 | 59 | 1013.6 |
| 20260904224200 | 34 | 285 | 0.0 | 0.0 | 0.00 | 0.00 | 0.00 | 58 | 1013.7 |
| 20260904224000 | 34 | 285 | 0.0 | 0.0 | 0.00 | 0.00 | 0.00 | 58 | 1013.6 |
| 20260904223801 | 35 | 285 | 0.0 | 0.0 | 0.00 | 0.00 | 0.00 | 58 | 1013.6 |
| 20260904223600 | 35 | 285 | 0.0 | 0.0 | 0.00 | 0.00 | 0.00 | 58 | 1013.6 |
| 20260904223400 | 35 | 284 | 0.0 | 1.6 | 0.00 | 0.00 | 0.00 | 57 | 1013.7 |
| 20260904223001 | 35 | 282 | 0.0 | 3.2 | 0.00 | 0.00 | 0.00 | 57 | 1013.7 |
| 20260904222801 | 35 | 282 | 0.0 | 3.2 | 0.00 | 0.00 | 0.00 | 57 | 1013.7 |
| 20260904222600 | 35 | 276 | 0.0 | 3.2 | 0.00 | 0.00 | 0.00 | 56 | 1013.7 |
| 20260904222401 | 35 | 274 | 0.0 | 3.2 | 0.00 | 0.00 | 0.00 | 55 | 1013.6 |
| 20260904222200 | 35 | 274 | 0.0 | 3.2 | 0.00 | 0.00 | 0.00 | 55 | 1013.6 |
| 20260904221800 | 35 | 274 | 0.0 | 1.6 | 0.00 | 0.00 | 0.00 | 55 | 1013.6 |
| 20260904221601 | 35 | 274 | 0.0 | 1.6 | 0.00 | 0.00 | 0.00 | 55 | 1013.7 |
| 20260904221402 | 35 | 274 | 0.0 | 1.6 | 0.00 | 0.00 | 0.00 | 54 | 1013.7 |
| 20260904221201 | 35 | 274 | 0.0 | 3.2 | 0.00 | 0.00 | 0.00 | 55 | 1013.7 |
| 20260904221000 | 35 | 274 | 0.0 | 3.2 | 0.00 | 0.00 | 0.00 | 56 | 1013.6 |
| 20260904220801 | 35 | 274 | 0.0 | 3.2 | 0.00 | 0.00 | 0.00 | 55 | 1013.6 |
| 20260904220600 | 35 | 276 | 1.6 | 3.2 | 0.00 | 0.00 | 0.00 | 55 | 1013.7 |
| 20260904220401 | 35 | 258 | 1.6 | 3.2 | 0.00 | 0.00 | 0.00 | 52 | 1013.6 |
| 20260904220200 | 35 | 276 | 1.6 | 4.8 | 0.00 | 0.00 | 0.00 | 54 | 1013.6 |
| 20260904220004 | 35 | 299 | 1.6 | 4.8 | 0.00 | 0.00 | 0.00 | 53 | 1013.6 |
| 20260904215800 | 35 | 300 | 1.6 | 4.8 | 0.00 | 0.00 | 0.00 | 52 | 1013.7 |
| 20260904215600 | 35 | 326 | 1.6 | 4.8 | 0.00 | 0.00 | 0.00 | 54 | 1013.7 |
| 20260904215400 | 35 | 326 | 1.6 | 4.8 | 0.00 | 0.00 | 0.00 | 52 | 1013.7 |
| 20260904215200 | 36 | 268 | 0.0 | 6.4 | 0.00 | 0.00 | 0.00 | 55 | 1013.7 |
| 20260904215000 | 36 | 268 | 0.0 | 6.4 | 0.00 | 0.00 | 0.00 | 52 | 1013.7 |
| 20260904214600 | 36 | 289 | 1.6 | 6.4 | 0.00 | 0.00 | 0.00 | 53 | 1013.7 |
| 20260904214400 | 36 | 255 | 0.0 | 3.2 | 0.00 | 0.00 | 0.00 | 54 | 1013.7 |
| 20260904214200 | 36 | 266 | 1.6 | 3.2 | 0.00 | 0.00 | 0.00 | 55 | 1013.7 |
| 20260904214000 | 35 | 286 | 1.6 | 4.8 | 0.00 | 0.00 | 0.00 | 55 | 1013.8 |
| 20260904213800 | 35 | 326 | 1.6 | 4.8 | 0.00 | 0.00 | 0.00 | 52 | 1013.8 |
| 20260904213600 | 35 | 285 | 3.2 | 4.8 | 0.00 | 0.00 | 0.00 | 53 | 1013.7 |
| 20260904213400 | 35 | 218 | 3.2 | 6.4 | 0.00 | 0.00 | 0.00 | 53 | 1013.8 |
| 20260904213200 | 36 | 297 | 1.6 | 6.4 | 0.00 | 0.00 | 0.00 | 52 | 1013.8 |
| 20260904212601 | 36 | 319 | 1.6 | 4.8 | 0.00 | 0.00 | 0.00 | 54 | 1013.8 |
| 20260904212401 | 36 | 215 | 1.6 | 4.8 | 0.00 | 0.00 | 0.00 | 53 | 1013.7 |
| 20260904212200 | 36 | 249 | 1.6 | 4.8 | 0.00 | 0.00 | 0.00 | 56 | 1013.7 |
| 20260904211601 | 36 | 255 | 0.0 | 4.8 | 0.00 | 0.00 | 0.00 | 55 | 1013.8 |
| 20260904211201 | 35 | 10 | 1.6 | 6.4 | 0.00 | 0.00 | 0.00 | 55 | 1013.8 |
| 20260904211000 | 35 | 309 | 1.6 | 6.4 | 0.00 | 0.00 | 0.00 | 53 | 1013.8 |
| 20260904210800 | 35 | 340 | 1.6 | 6.4 | 0.00 | 0.00 | 0.00 | 54 | 1013.8 |
| 20260904210600 | 35 | 334 | 1.6 | 6.4 | 0.00 | 0.00 | 0.00 | 52 | 1013.8 |
| 20260904210200 | 36 | 214 | 1.6 | 4.8 | 0.00 | 0.00 | 0.00 | 55 | 1013.9 |
| 20260904210003 | 35 | 249 | 1.6 | 6.4 | 0.00 | 0.00 | 0.00 | 52 | 1013.9 |
| 20260904205800 | 35 | 288 | 1.6 | 6.4 | 0.00 | 0.00 | 0.00 | 52 | 1014.0 |
| 20260904205601 | 35 | 233 | 1.6 | 6.4 | 0.00 | 0.00 | 0.00 | 56 | 1014.0 |
| 20260904205400 | 35 | 255 | 3.2 | 9.7 | 0.00 | 0.00 | 0.00 | 54 | 1013.9 |
| 20260904205201 | 35 | 227 | 3.2 | 9.7 | 0.00 | 0.00 | 0.00 | 53 | 1014.0 |